Time,TemperatureF,DewpointF,PressureIn,WindDirection,WindDirectionDegrees,WindSpeedMPH,WindSpeedGustMPH,Humidity,HourlyPrecipIn,Conditions,Clouds,dailyrainin,SoftwareType,DateUTC
2013-01-22 00:00:00,25.8,15.5,29.80,NNE,25,9.1,12.1,65,0.00,,---,0.00,VWS V14.01,2013-01-22 05:00:00,
2013-01-22 00:01:00,12.9,-0.5,30.17,WNW,302,9.9,10.4,54,0.00,,---,0.00,VWS V14.01,2013-01-22 05:01:00,
2013-01-22 00:05:00,26.1,14.3,29.80,NNW,336,18.1,21.9,60,0.00,,---,0.00,VWS V14.01,2013-01-22 05:05:00,
2013-01-22 00:10:00,25.9,13.4,29.80,WNW,291,16.0,16.7,59,0.00,,---,0.00,VWS V14.01,2013-01-22 05:10:00,
2013-01-22 00:15:00,25.7,12.9,29.80,NW,322,10.4,10.4,58,0.00,,---,0.00,VWS V14.01,2013-01-22 05:15:00,
2013-01-22 00:20:00,25.3,12.4,29.79,NW,307,12.9,13.1,57,0.00,,---,0.00,VWS V14.01,2013-01-22 05:20:00,
2013-01-22 00:25:00,25.5,12.6,29.79,North,356,9.4,9.5,58,0.00,,---,0.00,VWS V14.01,2013-01-22 05:25:00,
2013-01-22 00:30:00,25.4,12.2,29.79,North,349,11.3,11.3,57,0.00,,---,0.00,VWS V14.01,2013-01-22 05:30:00,
2013-01-22 00:35:00,25.2,12.0,29.79,NW,315,8.2,10.4,57,0.00,,---,0.00,VWS V14.01,2013-01-22 05:35:00,
2013-01-22 00:40:00,25.2,11.4,29.79,NW,325,17.5,17.5,55,0.00,,---,0.00,VWS V14.01,2013-01-22 05:40:00,
2013-01-22 00:45:00,25.0,10.2,29.79,NNW,328,11.5,11.5,53,0.00,,---,0.00,VWS V14.01,2013-01-22 05:45:00,
2013-01-22 00:50:00,24.9,9.6,29.80,South,176,23.1,26.2,52,0.00,,---,0.00,VWS V14.01,2013-01-22 05:50:00,
2013-01-22 00:55:00,25.0,9.3,29.80,NW,307,15.0,15.3,51,35.45,,---,0.00,VWS V14.01,2013-01-22 05:55:00,
2013-01-22 01:00:00,25.1,8.9,29.79,NW,326,18.5,18.5,50,0.00,,---,0.00,VWS V14.01,2013-01-22 06:00:00,
2013-01-22 01:05:00,24.9,8.8,29.80,NW,326,9.3,13.8,50,0.00,,---,0.00,VWS V14.01,2013-01-22 06:05:00,
2013-01-22 01:10:00,24.7,8.8,29.80,NW,326,10.4,15.7,50,0.00,,---,0.00,VWS V14.01,2013-01-22 06:10:00,
2013-01-22 01:15:00,24.3,8.7,29.81,NW,323,5.5,15.5,51,0.00,,---,0.00,VWS V14.01,2013-01-22 06:15:00,
2013-01-22 01:20:00,24.5,8.6,29.81,NNW,339,9.9,15.7,50,0.00,,---,0.00,VWS V14.01,2013-01-22 06:20:00,
2013-01-22 01:25:00,24.3,8.4,29.81,NNW,345,12.6,17.3,50,0.00,,---,0.00,VWS V14.01,2013-01-22 06:25:00,
2013-01-22 01:30:00,23.9,7.8,29.81,North,353,17.5,25.0,50,0.00,,---,0.00,VWS V14.01,2013-01-22 06:30:00,
2013-01-22 01:35:00,24.4,8.4,29.81,NNW,335,12.2,21.3,50,0.00,,---,0.00,VWS V14.01,2013-01-22 06:35:00,
2013-01-22 01:40:00,24.2,8.4,29.82,NW,311,13.4,17.5,50,0.00,,---,0.00,VWS V14.01,2013-01-22 06:40:00,
2013-01-22 01:45:00,23.8,8.4,29.82,NW,309,11.5,14.6,51,0.00,,---,0.00,VWS V14.01,2013-01-22 06:45:00,
2013-01-22 01:50:00,24.0,8.6,29.82,NW,321,9.1,13.3,51,0.00,,---,0.00,VWS V14.01,2013-01-22 06:50:00,
2013-01-22 01:55:00,23.8,8.5,29.82,WNW,301,9.5,12.8,51,0.00,,---,0.00,VWS V14.01,2013-01-22 06:55:00,
2013-01-22 02:00:00,23.8,8.0,29.82,NW,319,8.4,23.5,50,0.00,,---,0.00,VWS V14.01,2013-01-22 07:00:00,
2013-01-22 02:05:00,23.0,6.5,29.82,NNW,339,8.3,23.5,48,0.00,,---,0.00,VWS V14.01,2013-01-22 07:05:00,
2013-01-22 02:10:00,23.2,6.2,29.82,NW,323,14.8,23.8,47,0.00,,---,0.00,VWS V14.01,2013-01-22 07:10:00,
2013-01-22 02:15:00,23.4,6.3,29.82,NNW,332,12.8,23.7,47,0.00,,---,0.00,VWS V14.01,2013-01-22 07:15:00,
2013-01-22 02:20:00,23.4,6.3,29.82,WNW,288,12.4,17.4,47,0.00,,---,0.00,VWS V14.01,2013-01-22 07:20:00,
2013-01-22 02:25:00,23.3,7.0,29.82,North,352,15.4,22.9,49,0.00,,---,0.00,VWS V14.01,2013-01-22 07:25:00,
2013-01-22 02:30:00,23.3,6.6,29.82,NNW,328,11.6,19.3,48,36.37,,---,0.00,VWS V14.01,2013-01-22 07:30:00,
2013-01-22 02:35:00,23.3,6.6,29.82,NW,315,9.4,12.8,48,0.00,,---,0.00,VWS V14.01,2013-01-22 07:35:00,
2013-01-22 02:40:00,22.6,5.9,29.82,NNW,333,14.2,20.1,48,0.00,,---,0.00,VWS V14.01,2013-01-22 07:40:00,
2013-01-22 02:45:00,22.6,5.5,29.83,NW,309,15.3,22.2,47,0.00,,---,0.00,VWS V14.01,2013-01-22 07:45:00,
2013-01-22 02:50:00,22.3,5.4,29.83,NNW,329,14.2,15.5,48,0.00,,---,0.00,VWS V14.01,2013-01-22 07:50:00,
2013-01-22 02:55:00,22.6,5.3,29.83,WNW,284,8.2,22.7,47,0.00,,---,0.00,VWS V14.01,2013-01-22 07:55:00,
2013-01-22 03:00:00,22.2,4.7,29.84,West,281,15.0,15.7,46,0.00,,---,0.00,VWS V14.01,2013-01-22 08:00:00,
2013-01-22 03:05:00,22.1,4.4,29.83,WNW,300,12.7,18.3,46,0.00,,---,0.00,VWS V14.01,2013-01-22 08:05:00,
2013-01-22 03:10:00,21.9,4.0,29.84,NW,325,9.4,20.5,45,0.00,,---,0.00,VWS V14.01,2013-01-22 08:10:00,
2013-01-22 03:15:00,21.8,3.6,29.84,NW,311,9.7,20.4,45,0.00,,---,0.00,VWS V14.01,2013-01-22 08:15:00,
2013-01-22 03:20:00,22.0,3.7,29.84,West,266,9.9,19.8,45,0.00,,---,0.00,VWS V14.01,2013-01-22 08:20:00,
2013-01-22 03:25:00,21.1,2.7,29.84,NW,316,9.2,17.2,44,0.00,,---,0.00,VWS V14.01,2013-01-22 08:25:00,
2013-01-22 03:30:00,21.4,3.0,29.84,NW,325,9.8,17.7,44,0.00,,---,0.00,VWS V14.01,2013-01-22 08:30:00,
2013-01-22 03:35:00,21.0,3.4,29.85,NW,321,10.8,13.7,46,0.00,,---,0.00,VWS V14.01,2013-01-22 08:35:00,
2013-01-22 03:40:00,21.2,3.8,29.85,WSW,253,14.0,21.7,46,0.00,,---,0.00,VWS V14.01,2013-01-22 08:40:00,
2013-01-22 03:45:00,21.2,4.2,29.85,NW,325,8.9,13.0,47,0.00,,---,0.00,VWS V14.01,2013-01-22 08:45:00,
2013-01-22 03:50:00,21.0,4.5,29.85,NNW,329,5.8,10.9,48,0.00,,---,0.00,VWS V14.01,2013-01-22 08:50:00,
2013-01-22 03:55:00,20.8,4.6,29.86,WNW,298,11.4,11.5,49,0.00,,---,0.00,VWS V14.01,2013-01-22 08:55:00,
2013-01-22 04:00:00,20.9,4.8,29.86,WNW,291,14.5,15.2,49,0.00,,---,0.00,VWS V14.01,2013-01-22 09:00:00,
2013-01-22 04:05:00,20.3,4.3,29.86,West,277,13.4,18.7,49,0.00,,---,0.00,VWS V14.01,2013-01-22 09:05:00,
2013-01-22 04:10:00,20.3,4.3,29.86,NW,315,8.6,18.3,49,0.00,,---,0.00,VWS V14.01,2013-01-22 09:10:00,
2013-01-22 04:15:00,20.1,3.9,29.87,WNW,285,14.0,19.4,49,0.00,,---,0.00,VWS V14.01,2013-01-22 09:15:00,
2013-01-22 04:16:00,18.2,5.1,29.95,NW,312,7.4,8.6,56,0.00,,---,0.00,VWS V14.01,2013-01-22 09:16:00,
2013-01-22 04:20:00,20.2,3.7,29.87,WNW,288,16.7,20.3,48,0.00,,---,0.00,VWS V14.01,2013-01-22 09:20:00,
2013-01-22 04:25:00,19.6,3.4,29.87,NW,315,13.7,16.8,49,0.00,,---,0.00,VWS V14.01,2013-01-22 09:25:00,
2013-01-22 04:30:00,20.0,3.9,29.87,NW,307,14.7,15.4,49,0.00,,---,0.00,VWS V14.01,2013-01-22 09:30:00,
2013-01-22 04:35:00,19.4,3.3,29.88,NW,319,18.9,24.0,49,0.00,,---,0.00,VWS V14.01,2013-01-22 09:35:00,
2013-01-22 04:40:00,19.6,3.6,29.88,WNW,291,15.6,18.6,49,0.00,,---,0.00,VWS V14.01,2013-01-22 09:40:00,
2013-01-22 04:45:00,19.6,3.8,29.88,NW,314,13.9,19.6,50,0.00,,---,0.00,VWS V14.01,2013-01-22 09:45:00,
2013-01-22 04:50:00,19.7,4.1,29.89,WNW,292,8.0,12.6,50,0.00,,---,0.00,VWS V14.01,2013-01-22 09:50:00,
2013-01-22 04:55:00,19.7,4.6,29.89,NW,308,14.7,14.7,51,0.00,,---,0.00,VWS V14.01,2013-01-22 09:55:00,
2013-01-22 05:00:00,19.0,3.9,29.89,NW,325,12.1,19.1,51,0.00,,---,0.00,VWS V14.01,2013-01-22 10:00:00,
2013-01-22 05:05:00,19.4,4.6,29.89,NNW,340,7.5,8.7,52,0.00,,---,0.00,VWS V14.01,2013-01-22 10:05:00,
2013-01-22 05:10:00,19.7,4.9,29.89,South,183,6.8,14.6,52,0.00,,---,0.00,VWS V14.01,2013-01-22 10:10:00,
2013-01-22 05:15:00,18.6,3.8,29.89,WNW,295,9.3,16.3,52,0.00,,---,0.00,VWS V14.01,2013-01-22 10:15:00,
2013-01-22 05:20:00,19.0,4.1,29.90,NW,315,14.9,17.4,52,0.00,,---,0.00,VWS V14.01,2013-01-22 10:20:00,
2013-01-22 05:25:00,18.7,4.1,29.90,NW,322,12.5,17.0,52,0.00,,---,0.00,VWS V14.01,2013-01-22 10:25:00,
2013-01-22 05:30:00,18.7,4.4,29.91,NW,311,9.8,15.3,53,0.00,,---,0.00,VWS V14.01,2013-01-22 10:30:00,
2013-01-22 05:35:00,18.3,4.2,29.91,WNW,297,9.6,15.7,53,0.00,,---,0.00,VWS V14.01,2013-01-22 10:35:00,
2013-01-22 05:40:00,17.7,4.0,29.91,NW,311,7.1,7.8,54,0.00,,---,0.00,VWS V14.01,2013-01-22 10:40:00,
2013-01-22 05:45:00,18.6,4.7,29.91,NNW,335,7.8,12.9,54,0.00,,---,0.00,VWS V14.01,2013-01-22 10:45:00,
2013-01-22 05:50:00,18.2,4.6,29.91,NW,308,10.5,18.1,55,0.00,,---,0.00,VWS V14.01,2013-01-22 10:50:00,
2013-01-22 05:55:00,18.1,4.4,29.91,WNW,302,13.2,15.2,54,0.00,,---,0.00,VWS V14.01,2013-01-22 10:55:00,
2013-01-22 06:00:00,19.1,5.5,29.91,NNW,333,8.3,12.6,55,0.00,,---,0.00,VWS V14.01,2013-01-22 11:00:00,
2013-01-22 06:05:00,18.1,4.5,29.91,NNW,340,13.6,19.9,55,0.00,,---,0.00,VWS V14.01,2013-01-22 11:05:00,
2013-01-22 06:10:00,17.4,4.0,29.92,NW,318,10.4,12.5,55,0.00,,---,0.00,VWS V14.01,2013-01-22 11:10:00,
2013-01-22 06:15:00,17.4,3.7,29.92,WNW,291,16.2,22.8,54,0.00,,---,0.00,VWS V14.01,2013-01-22 11:15:00,
2013-01-22 06:20:00,18.2,4.8,29.92,NW,311,15.3,16.5,55,0.00,,---,0.00,VWS V14.01,2013-01-22 11:20:00,
2013-01-22 06:25:00,17.3,4.0,29.92,WNW,285,11.2,11.2,55,0.00,,---,0.00,VWS V14.01,2013-01-22 11:25:00,
2013-01-22 06:30:00,17.1,4.0,29.93,NW,308,9.6,12.9,56,0.00,,---,0.00,VWS V14.01,2013-01-22 11:30:00,
2013-01-22 06:35:00,17.1,4.0,29.94,NNW,333,11.6,11.6,56,0.00,,---,0.00,VWS V14.01,2013-01-22 11:35:00,
2013-01-22 06:40:00,18.7,5.4,29.94,NW,304,6.3,12.4,56,70.45,,---,0.00,VWS V14.01,2013-01-22 11:40:00,
2013-01-22 06:45:00,17.2,3.8,29.94,NW,315,8.9,19.9,55,0.00,,---,0.00,VWS V14.01,2013-01-22 11:45:00,
2013-01-22 06:50:00,17.2,4.1,29.94,NNW,336,11.5,14.1,56,0.00,,---,0.00,VWS V14.01,2013-01-22 11:50:00,
2013-01-22 06:55:00,18.2,5.1,29.95,NW,304,10.5,10.5,56,0.00,,---,0.00,VWS V14.01,2013-01-22 11:55:00,
2013-01-22 07:00:00,16.5,3.5,29.95,NW,322,5.2,8.4,56,0.00,,---,0.00,VWS V14.01,2013-01-22 12:00:00,
2013-01-22 07:05:00,16.8,3.8,29.95,NW,319,11.4,17.1,56,0.00,,---,0.00,VWS V14.01,2013-01-22 12:05:00,
2013-01-22 07:10:00,17.6,4.4,29.95,NW,316,8.1,13.4,56,0.00,,---,0.00,VWS V14.01,2013-01-22 12:10:00,
2013-01-22 07:15:00,17.2,3.9,29.96,NW,309,9.0,16.0,55,0.00,,---,0.00,VWS V14.01,2013-01-22 12:15:00,
2013-01-22 07:20:00,17.3,4.2,29.96,WNW,300,9.8,9.8,56,0.00,,---,0.00,VWS V14.01,2013-01-22 12:20:00,
2013-01-22 07:25:00,17.0,4.1,29.96,NNW,328,8.4,8.6,56,0.00,,---,0.00,VWS V14.01,2013-01-22 12:25:00,
2013-01-22 07:30:00,17.0,4.2,29.96,NNW,329,6.5,7.7,57,0.00,,---,0.00,VWS V14.01,2013-01-22 12:30:00,
2013-01-22 07:35:00,15.9,3.3,29.97,NW,314,14.0,14.7,57,0.00,,---,0.00,VWS V14.01,2013-01-22 12:35:00,
2013-01-22 07:40:00,17.0,4.1,29.97,WNW,302,7.1,8.6,56,0.00,,---,0.00,VWS V14.01,2013-01-22 12:40:00,
2013-01-22 07:45:00,16.5,3.4,29.98,WNW,291,9.4,12.9,56,69.97,,---,0.00,VWS V14.01,2013-01-22 12:45:00,
2013-01-22 07:50:00,16.8,3.7,29.98,NW,316,4.7,10.2,56,0.00,,---,0.00,VWS V14.01,2013-01-22 12:50:00,
2013-01-22 07:55:00,17.5,4.4,29.98,NW,315,9.9,11.0,56,69.97,,---,0.00,VWS V14.01,2013-01-22 12:55:00,
2013-01-22 08:00:00,16.6,3.3,29.97,WNW,300,8.9,14.7,55,0.00,,---,0.00,VWS V14.01,2013-01-22 13:00:00,
2013-01-22 08:05:00,16.5,3.2,29.97,NW,319,9.6,11.8,55,0.00,,---,0.00,VWS V14.01,2013-01-22 13:05:00,
2013-01-22 08:10:00,16.8,3.6,29.98,West,277,8.6,11.5,56,0.00,,---,0.00,VWS V14.01,2013-01-22 13:10:00,
2013-01-22 08:15:00,16.7,3.6,29.98,WNW,302,7.9,10.6,56,0.00,,---,0.00,VWS V14.01,2013-01-22 13:15:00,
2013-01-22 08:20:00,16.9,3.5,29.98,WNW,292,7.6,10.9,55,69.81,,---,0.00,VWS V14.01,2013-01-22 13:20:00,
2013-01-22 08:25:00,17.8,4.4,29.98,NW,322,7.1,8.6,55,0.00,,---,0.00,VWS V14.01,2013-01-22 13:25:00,
2013-01-22 08:30:00,16.6,3.1,29.99,WNW,290,10.2,14.6,55,0.00,,---,0.00,VWS V14.01,2013-01-22 13:30:00,
2013-01-22 08:35:00,16.6,3.3,29.99,NNW,346,8.6,10.1,55,0.00,,---,0.00,VWS V14.01,2013-01-22 13:35:00,
2013-01-22 08:40:00,17.2,3.8,29.99,NNE,13,7.0,15.1,55,0.00,,---,0.00,VWS V14.01,2013-01-22 13:40:00,
2013-01-22 08:45:00,17.2,3.3,29.99,WNW,295,8.1,14.6,54,0.00,,---,0.00,VWS V14.01,2013-01-22 13:45:00,
2013-01-22 08:50:00,16.6,3.1,29.99,WNW,287,9.1,13.0,55,0.00,,---,0.00,VWS V14.01,2013-01-22 13:50:00,
2013-01-22 08:55:00,17.2,3.5,30.00,WNW,284,6.1,11.0,54,0.00,,---,0.00,VWS V14.01,2013-01-22 13:55:00,
2013-01-22 09:00:00,17.2,3.3,29.99,NW,321,5.8,7.1,54,0.00,,---,0.00,VWS V14.01,2013-01-22 14:00:00,
2013-01-22 09:05:00,17.6,4.0,30.00,WNW,300,5.9,8.3,55,0.00,,---,0.00,VWS V14.01,2013-01-22 14:05:00,
2013-01-22 09:10:00,16.8,2.8,30.00,NW,315,13.7,19.0,53,0.00,,---,0.00,VWS V14.01,2013-01-22 14:10:00,
2013-01-22 09:15:00,17.0,3.0,30.00,WNW,298,6.2,6.2,54,0.00,,---,0.00,VWS V14.01,2013-01-22 14:15:00,
2013-01-22 09:19:00,17.2,3.0,30.00,NW,309,9.1,13.3,53,0.00,,---,0.00,VWS V14.01,2013-01-22 14:19:00,
2013-01-22 09:24:00,17.3,2.9,30.00,NW,304,23.4,27.4,52,0.00,,---,0.00,VWS V14.01,2013-01-22 14:24:00,
2013-01-22 09:30:00,17.9,3.5,30.00,WNW,298,13.2,16.4,53,0.00,,---,0.00,VWS V14.01,2013-01-22 14:30:00,
2013-01-22 09:35:00,18.1,3.3,30.00,WNW,294,12.1,16.1,52,0.00,,---,0.00,VWS V14.01,2013-01-22 14:35:00,
2013-01-22 09:39:00,17.9,3.1,30.00,WNW,302,18.5,18.5,52,0.00,,---,0.00,VWS V14.01,2013-01-22 14:39:00,
2013-01-22 09:44:00,17.6,2.7,30.00,NNW,335,12.2,14.1,51,0.00,,---,0.00,VWS V14.01,2013-01-22 14:44:00,
2013-01-22 09:49:00,17.1,2.4,30.00,NW,312,12.8,16.1,52,0.00,,---,0.00,VWS V14.01,2013-01-22 14:49:00,
2013-01-22 09:54:00,17.1,2.3,30.00,North,359,9.2,12.7,51,0.00,,---,0.00,VWS V14.01,2013-01-22 14:54:00,
2013-01-22 09:59:00,17.8,3.0,30.00,North,353,11.6,13.3,52,0.00,,---,0.00,VWS V14.01,2013-01-22 14:59:00,
2013-01-22 10:04:00,17.6,2.2,30.01,WNW,292,25.7,25.7,50,0.00,,---,0.00,VWS V14.01,2013-01-22 15:04:00,
2013-01-22 10:09:00,17.1,1.9,30.01,NW,315,18.0,20.0,50,0.00,,---,0.00,VWS V14.01,2013-01-22 15:09:00,
2013-01-22 10:14:00,17.7,3.4,30.01,NW,315,6.9,8.2,53,0.00,,---,0.00,VWS V14.01,2013-01-22 15:14:00,
2013-01-22 10:19:00,19.0,3.9,30.01,NW,316,21.4,21.4,51,0.00,,---,0.00,VWS V14.01,2013-01-22 15:19:00,
2013-01-22 10:24:00,17.8,2.5,30.01,WNW,291,12.1,20.1,50,0.00,,---,0.00,VWS V14.01,2013-01-22 15:24:00,
2013-01-22 10:29:00,17.2,1.6,30.01,NNW,330,17.9,19.8,50,0.00,,---,0.00,VWS V14.01,2013-01-22 15:29:00,
2013-01-22 10:34:00,18.4,2.8,30.01,NNW,339,7.8,18.6,50,76.85,,---,0.00,VWS V14.01,2013-01-22 15:34:00,
2013-01-22 10:39:00,18.4,2.4,30.01,NNW,345,7.1,8.9,49,0.00,,---,0.00,VWS V14.01,2013-01-22 15:39:00,
2013-01-22 10:44:00,17.3,1.2,30.01,NNW,332,12.9,14.4,48,0.00,,---,0.00,VWS V14.01,2013-01-22 15:44:00,
2013-01-22 10:49:00,17.9,1.4,30.01,NW,311,7.0,7.3,48,0.00,,---,0.00,VWS V14.01,2013-01-22 15:49:00,
2013-01-22 10:54:00,18.5,1.3,30.01,NW,314,19.6,19.6,46,0.00,,---,0.00,VWS V14.01,2013-01-22 15:54:00,
2013-01-22 10:59:00,17.6,-0.5,30.00,NW,311,18.6,18.6,44,0.00,,---,0.00,VWS V14.01,2013-01-22 15:59:00,
2013-01-22 11:04:00,18.4,1.4,30.00,WNW,284,17.6,17.6,47,0.00,,---,0.00,VWS V14.01,2013-01-22 16:04:00,
2013-01-22 11:09:00,17.7,-1.2,30.00,West,281,13.5,15.4,43,0.00,,---,0.00,VWS V14.01,2013-01-22 16:09:00,
2013-01-22 11:14:00,17.8,-0.4,30.00,West,276,12.6,16.0,44,0.00,,---,0.00,VWS V14.01,2013-01-22 16:14:00,
2013-01-22 11:19:00,18.4,0.5,29.99,NNW,332,17.8,21.3,45,0.00,,---,0.00,VWS V14.01,2013-01-22 16:19:00,
2013-01-22 11:24:00,17.4,0.0,29.99,West,281,17.4,20.6,46,0.00,,---,0.00,VWS V14.01,2013-01-22 16:24:00,
2013-01-22 11:29:00,18.9,1.4,29.99,WNW,294,8.8,22.7,46,0.00,,---,0.00,VWS V14.01,2013-01-22 16:29:00,
2013-01-22 11:34:00,17.7,-0.6,30.00,WNW,288,15.0,17.5,44,0.16,,---,0.00,VWS V14.01,2013-01-22 16:34:00,
2013-01-22 11:39:00,18.8,0.8,30.00,SE,128,28.1,29.0,45,0.00,,---,0.00,VWS V14.01,2013-01-22 16:39:00,
2013-01-22 11:44:00,18.2,0.6,30.00,West,264,17.7,17.7,45,0.00,,---,0.00,VWS V14.01,2013-01-22 16:44:00,
2013-01-22 11:49:00,18.5,0.8,29.99,North,0,12.3,22.2,45,0.00,,---,0.00,VWS V14.01,2013-01-22 16:49:00,
2013-01-22 11:54:00,17.8,-0.6,29.99,NNW,333,12.3,25.7,44,0.00,,---,0.00,VWS V14.01,2013-01-22 16:54:00,
2013-01-22 11:59:00,17.9,0.2,29.99,NW,326,13.4,19.2,45,74.77,,---,0.00,VWS V14.01,2013-01-22 16:59:00,
2013-01-22 12:04:00,18.3,0.2,29.99,WNW,295,12.4,18.7,44,0.00,,---,0.00,VWS V14.01,2013-01-22 17:04:00,
2013-01-22 12:09:00,18.0,0.2,29.99,WNW,291,16.8,22.0,45,0.00,,---,0.00,VWS V14.01,2013-01-22 17:09:00,
2013-01-22 12:14:00,17.4,-0.4,29.99,NW,309,14.2,22.2,45,0.00,,---,0.00,VWS V14.01,2013-01-22 17:14:00,
2013-01-22 12:19:00,17.1,-0.7,29.99,WNW,291,12.0,17.8,45,0.00,,---,0.00,VWS V14.01,2013-01-22 17:19:00,
2013-01-22 12:24:00,17.5,-0.9,29.99,WNW,295,16.7,25.4,44,0.00,,---,0.00,VWS V14.01,2013-01-22 17:24:00,
2013-01-22 12:29:00,17.5,-1.2,29.99,NW,307,18.3,19.3,43,0.00,,---,0.00,VWS V14.01,2013-01-22 17:29:00,
2013-01-22 12:34:00,17.4,-1.0,29.99,NW,314,8.6,20.0,44,0.00,,---,0.00,VWS V14.01,2013-01-22 17:34:00,
2013-01-22 12:39:00,17.1,-1.1,29.99,NW,312,10.6,18.6,44,0.00,,---,0.00,VWS V14.01,2013-01-22 17:39:00,
2013-01-22 12:44:00,17.8,-0.4,29.99,WNW,283,15.4,20.4,44,0.00,,---,0.00,VWS V14.01,2013-01-22 17:44:00,
2013-01-22 12:49:00,17.6,-1.2,29.99,WSW,240,13.8,15.2,43,0.00,,---,0.00,VWS V14.01,2013-01-22 17:49:00,
2013-01-22 12:54:00,17.0,-1.7,29.99,NNW,336,8.9,18.8,43,0.00,,---,0.00,VWS V14.01,2013-01-22 17:54:00,
2013-01-22 12:59:00,17.5,-1.0,29.99,WNW,295,8.6,16.7,43,0.00,,---,0.00,VWS V14.01,2013-01-22 17:59:00,
2013-01-22 13:04:00,17.2,-1.1,29.99,NW,312,14.9,18.0,44,0.00,,---,0.00,VWS V14.01,2013-01-22 18:04:00,
2013-01-22 13:09:00,17.7,-1.1,29.99,WNW,295,20.9,25.1,43,0.00,,---,0.00,VWS V14.01,2013-01-22 18:09:00,
2013-01-22 13:14:00,17.7,-1.2,29.98,NW,308,9.9,22.9,42,0.00,,---,0.00,VWS V14.01,2013-01-22 18:14:00,
2013-01-22 13:19:00,17.5,-1.1,29.98,NW,312,6.8,19.7,43,0.00,,---,0.00,VWS V14.01,2013-01-22 18:19:00,
2013-01-22 13:24:00,17.0,-1.2,29.98,WNW,292,7.6,7.6,44,0.00,,---,0.00,VWS V14.01,2013-01-22 18:24:00,
2013-01-22 13:29:00,17.7,-0.3,29.98,WNW,300,13.6,20.1,44,0.00,,---,0.00,VWS V14.01,2013-01-22 18:29:00,
2013-01-22 13:34:00,17.7,-0.3,29.98,WNW,285,16.2,16.2,44,0.00,,---,0.00,VWS V14.01,2013-01-22 18:34:00,
2013-01-22 13:39:00,17.9,0.1,29.98,NW,322,6.2,16.8,45,0.00,,---,0.00,VWS V14.01,2013-01-22 18:39:00,
2013-01-22 13:44:00,18.6,-0.1,29.98,NW,307,19.3,26.5,43,0.00,,---,0.00,VWS V14.01,2013-01-22 18:44:00,
2013-01-22 13:49:00,18.7,0.5,29.99,WNW,294,19.0,22.3,44,0.00,,---,0.00,VWS V14.01,2013-01-22 18:49:00,
2013-01-22 13:54:00,17.7,-0.7,29.99,NW,315,13.4,20.1,44,0.00,,---,0.00,VWS V14.01,2013-01-22 18:54:00,
2013-01-22 13:59:00,17.2,-0.6,29.99,NW,318,12.6,12.6,45,0.00,,---,0.00,VWS V14.01,2013-01-22 18:59:00,
2013-01-22 14:04:00,18.2,-0.1,29.99,NW,326,8.4,18.1,44,0.00,,---,0.00,VWS V14.01,2013-01-22 19:04:00,
2013-01-22 14:09:00,18.3,-0.2,29.99,WNW,288,8.1,14.6,44,0.00,,---,0.00,VWS V14.01,2013-01-22 19:09:00,
2013-01-22 14:14:00,19.2,0.1,29.99,West,269,8.1,17.6,42,0.00,,---,0.00,VWS V14.01,2013-01-22 19:14:00,
2013-01-22 14:19:00,19.2,0.4,29.99,WNW,302,10.7,23.9,43,0.00,,---,0.00,VWS V14.01,2013-01-22 19:19:00,
2013-01-22 14:24:00,18.7,0.2,29.99,NW,314,9.7,10.9,44,0.00,,---,0.00,VWS V14.01,2013-01-22 19:24:00,
2013-01-22 14:29:00,18.9,-0.2,29.99,NW,315,5.4,14.5,42,0.00,,---,0.00,VWS V14.01,2013-01-22 19:29:00,
2013-01-22 14:34:00,18.9,-1.1,30.00,NW,309,18.2,20.9,41,0.00,,---,0.00,VWS V14.01,2013-01-22 19:34:00,
2013-01-22 14:39:00,18.1,-2.0,30.00,NW,321,11.5,16.0,40,0.00,,---,0.00,VWS V14.01,2013-01-22 19:39:00,
2013-01-22 14:44:00,18.8,-1.5,30.00,WNW,292,11.9,20.6,40,0.00,,---,0.00,VWS V14.01,2013-01-22 19:44:00,
2013-01-22 14:49:00,18.1,-2.6,30.00,NW,311,18.1,27.3,39,0.00,,---,0.00,VWS V14.01,2013-01-22 19:49:00,
2013-01-22 14:54:00,18.0,-2.6,30.00,WNW,300,13.9,21.3,39,0.00,,---,0.00,VWS V14.01,2013-01-22 19:54:00,
2013-01-22 14:59:00,17.8,-3.0,30.00,NNW,342,15.7,20.4,39,0.00,,---,0.00,VWS V14.01,2013-01-22 19:59:00,
2013-01-22 15:04:00,18.3,-2.2,30.00,NW,312,9.3,15.2,40,0.00,,---,0.00,VWS V14.01,2013-01-22 20:04:00,
2013-01-22 15:09:00,18.9,-2.3,30.00,WNW,297,12.9,24.0,38,0.00,,---,0.00,VWS V14.01,2013-01-22 20:09:00,
2013-01-22 15:14:00,18.6,-2.7,30.00,NW,319,13.2,17.0,38,0.00,,---,0.00,VWS V14.01,2013-01-22 20:14:00,
2013-01-22 15:19:00,18.4,-2.7,30.00,WNW,297,9.6,21.1,38,0.00,,---,0.00,VWS V14.01,2013-01-22 20:19:00,
2013-01-22 15:24:00,19.0,-1.6,30.00,WNW,292,12.7,12.7,40,0.00,,---,0.00,VWS V14.01,2013-01-22 20:24:00,
2013-01-22 15:29:00,18.2,-3.3,30.01,West,278,16.2,17.0,38,0.00,,---,0.00,VWS V14.01,2013-01-22 20:29:00,
2013-01-22 15:34:00,18.2,-3.2,30.01,NW,309,11.2,17.0,38,0.00,,---,0.00,VWS V14.01,2013-01-22 20:34:00,
2013-01-22 15:39:00,18.6,-2.1,30.02,NW,305,19.1,20.3,39,0.00,,---,0.00,VWS V14.01,2013-01-22 20:39:00,
2013-01-22 15:44:00,18.3,-3.1,30.02,NW,312,17.4,17.4,38,0.00,,---,0.00,VWS V14.01,2013-01-22 20:44:00,
2013-01-22 15:49:00,18.0,-2.3,30.02,NNW,338,13.0,16.8,40,0.00,,---,0.00,VWS V14.01,2013-01-22 20:49:00,
2013-01-22 15:54:00,18.1,-2.8,30.02,NW,323,18.8,18.8,39,0.00,,---,0.00,VWS V14.01,2013-01-22 20:54:00,
2013-01-22 15:59:00,18.4,-3.3,30.02,West,264,19.5,21.9,37,0.00,,---,0.00,VWS V14.01,2013-01-22 20:59:00,
2013-01-22 16:04:00,17.8,-3.4,30.03,NW,316,15.8,22.6,38,0.00,,---,0.00,VWS V14.01,2013-01-22 21:04:00,
2013-01-22 16:09:00,17.9,-3.0,30.02,West,270,9.8,17.3,39,0.00,,---,0.00,VWS V14.01,2013-01-22 21:09:00,
2013-01-22 16:14:00,17.8,-2.7,30.03,West,274,13.7,19.6,40,0.00,,---,0.00,VWS V14.01,2013-01-22 21:14:00,
2013-01-22 16:19:00,17.6,-2.9,30.03,NW,309,8.2,13.7,39,0.00,,---,0.00,VWS V14.01,2013-01-22 21:19:00,
2013-01-22 16:24:00,18.1,-2.4,30.03,WNW,294,12.2,19.5,40,0.00,,---,0.00,VWS V14.01,2013-01-22 21:24:00,
2013-01-22 16:29:00,17.1,-4.1,30.04,NW,319,17.0,18.7,38,0.00,,---,0.00,VWS V14.01,2013-01-22 21:29:00,
2013-01-22 16:31:00,16.8,-3.8,30.04,WNW,283,16.0,17.0,39,71.09,,---,0.00,VWS V14.01,2013-01-22 21:31:00,
2013-01-22 16:36:00,17.6,-2.8,30.04,NW,318,11.1,21.7,40,0.00,,---,0.00,VWS V14.01,2013-01-22 21:36:00,
2013-01-22 16:41:00,17.2,-3.1,30.04,NNW,336,21.1,21.4,40,70.93,,---,0.00,VWS V14.01,2013-01-22 21:41:00,
2013-01-22 16:46:00,17.5,-3.4,30.05,WNW,301,19.4,19.6,39,0.00,,---,0.00,VWS V14.01,2013-01-22 21:46:00,
2013-01-22 16:51:00,16.9,-3.3,30.05,WNW,288,10.4,10.4,40,0.00,,---,0.00,VWS V14.01,2013-01-22 21:51:00,
2013-01-22 16:56:00,17.5,-2.6,30.05,WNW,298,11.4,15.7,40,0.00,,---,0.00,VWS V14.01,2013-01-22 21:56:00,
2013-01-22 17:01:00,17.1,-2.8,30.05,NW,326,8.1,8.1,40,0.00,,---,0.00,VWS V14.01,2013-01-22 22:01:00,
2013-01-22 17:07:00,17.0,-2.1,30.06,NW,312,11.4,11.4,42,0.00,,---,0.00,VWS V14.01,2013-01-22 22:07:00,
2013-01-22 17:12:00,16.4,-2.3,30.06,NW,318,11.9,13.4,43,0.00,,---,0.00,VWS V14.01,2013-01-22 22:12:00,
2013-01-22 17:17:00,17.1,-0.9,29.50,NW,315,7.7,8.3,44,0.00,,---,0.00,VWS V14.01,2013-01-22 22:17:00,
2013-01-22 17:22:00,16.6,-1.3,30.07,NNW,335,7.8,10.6,44,0.00,,---,0.00,VWS V14.01,2013-01-22 22:22:00,
2013-01-22 17:27:00,16.7,-0.9,30.07,NW,311,9.4,14.7,45,0.00,,---,0.00,VWS V14.01,2013-01-22 22:27:00,
2013-01-22 17:32:00,16.6,-0.6,30.07,NNW,345,8.7,8.8,46,0.00,,---,0.00,VWS V14.01,2013-01-22 22:32:00,
2013-01-22 17:33:00,15.2,-2.2,30.13,WNW,285,9.2,9.2,45,0.00,,---,0.00,VWS V14.01,2013-01-22 22:33:00,
2013-01-22 17:37:00,16.4,-0.7,30.07,NW,316,9.5,11.1,46,0.00,,---,0.00,VWS V14.01,2013-01-22 22:37:00,
2013-01-22 17:42:00,16.9,-0.2,30.08,WNW,297,9.7,11.8,46,0.00,,---,0.00,VWS V14.01,2013-01-22 22:42:00,
2013-01-22 17:47:00,16.5,-0.7,30.08,WNW,298,7.3,11.0,46,0.00,,---,0.00,VWS V14.01,2013-01-22 22:47:00,
2013-01-22 17:52:00,16.6,-1.7,30.08,NW,304,14.8,15.9,44,0.00,,---,0.00,VWS V14.01,2013-01-22 22:52:00,
2013-01-22 17:57:00,15.8,-2.9,30.09,WNW,297,13.3,17.8,43,0.00,,---,0.00,VWS V14.01,2013-01-22 22:57:00,
2013-01-22 18:02:00,16.2,-3.2,30.09,NW,312,8.5,14.7,41,0.00,,---,0.00,VWS V14.01,2013-01-22 23:02:00,
2013-01-22 18:07:00,16.2,-3.2,30.09,WNW,284,11.2,13.8,41,0.00,,---,0.00,VWS V14.01,2013-01-22 23:07:00,
2013-01-22 18:12:00,16.2,-3.3,30.09,NW,319,13.9,15.6,41,0.00,,---,0.00,VWS V14.01,2013-01-22 23:12:00,
2013-01-22 18:17:00,15.8,-3.4,30.09,NW,323,9.1,12.4,42,0.00,,---,0.00,VWS V14.01,2013-01-22 23:17:00,
2013-01-22 18:22:00,15.8,-3.6,30.10,NW,315,11.4,19.9,41,0.00,,---,0.00,VWS V14.01,2013-01-22 23:22:00,
2013-01-22 18:27:00,16.0,-3.4,30.10,NW,311,12.4,16.5,41,0.00,,---,0.00,VWS V14.01,2013-01-22 23:27:00,
2013-01-22 18:32:00,16.4,-3.2,30.10,West,269,10.7,20.3,41,0.00,,---,0.00,VWS V14.01,2013-01-22 23:32:00,
2013-01-22 18:37:00,16.3,-3.2,30.10,West,278,12.3,12.8,41,0.00,,---,0.00,VWS V14.01,2013-01-22 23:37:00,
2013-01-22 18:42:00,16.2,-3.0,30.10,WNW,290,15.5,19.3,42,0.00,,---,0.00,VWS V14.01,2013-01-22 23:42:00,
2013-01-22 18:47:00,15.7,-3.2,30.10,NNW,347,12.2,15.2,42,0.00,,---,0.00,VWS V14.01,2013-01-22 23:47:00,
2013-01-22 18:52:00,15.8,-3.1,30.11,NW,307,8.3,19.2,42,0.00,,---,0.00,VWS V14.01,2013-01-22 23:52:00,
2013-01-22 18:57:00,15.6,-3.0,30.11,NNW,329,6.0,11.0,43,0.00,,---,0.00,VWS V14.01,2013-01-22 23:57:00,
2013-01-22 19:02:00,15.7,-2.6,30.11,NW,319,7.5,11.4,43,0.00,,---,0.00,VWS V14.01,2013-01-23 00:02:00,
2013-01-22 19:07:00,15.6,-2.5,30.11,NW,312,15.2,20.9,44,0.00,,---,0.00,VWS V14.01,2013-01-23 00:07:00,
2013-01-22 19:12:00,14.8,-3.1,30.11,NNW,328,17.0,22.4,44,0.00,,---,0.00,VWS V14.01,2013-01-23 00:12:00,
2013-01-22 19:17:00,16.0,-2.0,30.11,West,273,11.4,18.6,44,0.00,,---,0.00,VWS V14.01,2013-01-23 00:17:00,
2013-01-22 19:22:00,14.7,-3.0,30.12,West,276,10.9,12.7,45,0.00,,---,0.00,VWS V14.01,2013-01-23 00:22:00,
2013-01-22 19:27:00,15.4,-2.4,30.12,NW,319,6.3,11.6,44,0.00,,---,0.00,VWS V14.01,2013-01-23 00:27:00,
2013-01-22 19:32:00,15.7,-1.8,30.13,WNW,302,5.7,8.8,45,0.00,,---,0.00,VWS V14.01,2013-01-23 00:32:00,
2013-01-22 19:37:00,15.5,-2.0,30.13,WNW,300,10.6,16.7,45,0.00,,---,0.00,VWS V14.01,2013-01-23 00:37:00,
2013-01-22 19:42:00,15.0,-2.3,30.13,NW,304,11.4,15.5,45,0.00,,---,0.00,VWS V14.01,2013-01-23 00:42:00,
2013-01-22 19:47:00,15.6,-2.0,30.13,NW,314,10.1,12.8,45,0.00,,---,0.00,VWS V14.01,2013-01-23 00:47:00,
2013-01-22 19:52:00,15.2,-2.2,30.13,NW,321,7.9,15.9,45,0.00,,---,0.00,VWS V14.01,2013-01-23 00:52:00,
2013-01-22 19:57:00,15.0,-2.1,30.14,WNW,288,23.3,24.0,46,0.00,,---,0.00,VWS V14.01,2013-01-23 00:57:00,
2013-01-22 20:02:00,15.7,-1.3,30.13,NW,325,11.4,13.4,46,0.00,,---,0.00,VWS V14.01,2013-01-23 01:02:00,
2013-01-22 20:07:00,15.2,-1.5,30.13,NW,312,6.3,11.9,47,1.28,,---,0.00,VWS V14.01,2013-01-23 01:07:00,
2013-01-22 20:12:00,14.9,-1.7,30.14,WNW,285,8.9,13.2,47,0.00,,---,0.00,VWS V14.01,2013-01-23 01:12:00,
2013-01-22 20:17:00,15.1,-1.3,30.14,WNW,292,6.1,7.4,48,0.00,,---,0.00,VWS V14.01,2013-01-23 01:17:00,
2013-01-22 20:22:00,14.9,-1.4,30.14,WNW,301,8.8,9.9,48,0.00,,---,0.00,VWS V14.01,2013-01-23 01:22:00,
2013-01-22 20:27:00,14.9,-1.6,30.14,NW,307,15.2,18.0,47,0.00,,---,0.00,VWS V14.01,2013-01-23 01:27:00,
2013-01-22 20:32:00,14.5,-2.0,30.14,West,281,8.3,12.5,47,0.00,,---,0.00,VWS V14.01,2013-01-23 01:32:00,
2013-01-22 20:37:00,14.5,-2.0,30.14,WNW,285,9.2,12.8,47,0.00,,---,0.00,VWS V14.01,2013-01-23 01:37:00,
2013-01-22 20:42:00,14.7,-1.5,30.14,NW,314,5.6,7.3,48,0.00,,---,0.00,VWS V14.01,2013-01-23 01:42:00,
2013-01-22 20:47:00,14.8,-1.3,30.14,NW,305,4.3,7.1,48,0.00,,---,0.00,VWS V14.01,2013-01-23 01:47:00,
2013-01-22 20:52:00,14.1,-2.0,30.15,WNW,294,4.5,9.4,48,0.00,,---,0.00,VWS V14.01,2013-01-23 01:52:00,
2013-01-22 20:57:00,14.5,-1.3,30.15,WNW,298,5.3,11.0,49,0.00,,---,0.00,VWS V14.01,2013-01-23 01:57:00,
2013-01-22 21:02:00,14.3,-1.5,30.15,NW,314,12.1,13.0,49,0.00,,---,0.00,VWS V14.01,2013-01-23 02:02:00,
2013-01-22 21:07:00,14.5,-1.2,30.14,North,359,3.7,13.6,49,0.00,,---,0.00,VWS V14.01,2013-01-23 02:07:00,
2013-01-22 21:12:00,14.6,-1.1,30.14,NW,311,10.0,15.3,49,0.00,,---,0.00,VWS V14.01,2013-01-23 02:12:00,
2013-01-22 21:17:00,14.8,-1.0,30.14,NNW,329,8.6,17.6,49,0.00,,---,0.00,VWS V14.01,2013-01-23 02:17:00,
2013-01-22 21:22:00,14.3,-1.4,30.15,WNW,290,9.7,11.9,49,15.31,,---,0.00,VWS V14.01,2013-01-23 02:22:00,
2013-01-22 21:25:00,12.6,-2.3,30.18,West,276,7.6,9.8,50,0.00,,---,0.00,VWS V14.01,2013-01-23 02:25:00,
2013-01-22 21:27:00,14.0,-2.2,30.15,NW,314,9.8,14.2,48,0.00,,---,0.00,VWS V14.01,2013-01-23 02:27:00,
2013-01-22 21:32:00,14.7,-1.4,30.15,WNW,295,13.3,17.0,48,0.00,,---,0.00,VWS V14.01,2013-01-23 02:32:00,
2013-01-22 21:37:00,14.2,-2.0,30.15,West,260,5.7,14.4,48,0.00,,---,0.00,VWS V14.01,2013-01-23 02:37:00,
2013-01-22 21:43:00,14.1,-2.2,30.15,NW,323,15.3,15.3,48,0.00,,---,0.00,VWS V14.01,2013-01-23 02:43:00,
2013-01-22 21:48:00,13.8,-2.3,30.15,WNW,292,23.1,23.1,48,0.00,,---,0.00,VWS V14.01,2013-01-23 02:48:00,
2013-01-22 21:53:00,13.9,-2.1,30.15,NW,325,5.8,11.9,48,0.00,,---,0.00,VWS V14.01,2013-01-23 02:53:00,
2013-01-22 21:58:00,13.9,-1.8,30.15,West,269,11.6,13.5,49,0.00,,---,0.00,VWS V14.01,2013-01-23 02:58:00,
2013-01-22 22:03:00,13.3,-2.2,30.15,NW,314,10.9,10.9,49,0.00,,---,0.00,VWS V14.01,2013-01-23 03:03:00,
2013-01-22 22:08:00,13.4,-2.0,30.16,NNW,335,8.9,13.7,50,0.00,,---,0.00,VWS V14.01,2013-01-23 03:08:00,
2013-01-22 22:13:00,14.2,-1.2,30.16,NW,305,7.0,9.6,50,0.00,,---,0.00,VWS V14.01,2013-01-23 03:13:00,
2013-01-22 22:18:00,13.9,-1.3,30.17,NW,318,7.4,8.9,50,0.00,,---,0.00,VWS V14.01,2013-01-23 03:18:00,
2013-01-22 22:23:00,12.9,-2.1,30.17,NW,304,11.1,11.1,50,0.00,,---,0.00,VWS V14.01,2013-01-23 03:23:00,
2013-01-22 22:28:00,13.8,-1.2,30.17,NW,325,11.7,14.3,50,0.00,,---,0.00,VWS V14.01,2013-01-23 03:28:00,
2013-01-22 22:33:00,13.4,-1.5,30.17,NW,323,11.2,11.2,51,0.00,,---,0.00,VWS V14.01,2013-01-23 03:33:00,
2013-01-22 22:38:00,13.9,-0.8,30.17,WNW,302,6.0,6.0,51,40.09,,---,0.00,VWS V14.01,2013-01-23 03:38:00,
2013-01-22 22:43:00,13.5,-1.2,30.17,NW,315,9.0,13.4,51,0.00,,---,0.00,VWS V14.01,2013-01-23 03:43:00,
2013-01-22 22:48:00,13.9,-0.4,30.18,NW,308,9.7,9.7,52,0.00,,---,0.00,VWS V14.01,2013-01-23 03:48:00,
2013-01-22 22:53:00,13.3,-1.3,30.18,WNW,298,17.2,18.5,51,0.00,,---,0.00,VWS V14.01,2013-01-23 03:53:00,
2013-01-22 22:58:00,13.6,-0.9,30.18,West,278,21.3,24.0,52,0.00,,---,0.00,VWS V14.01,2013-01-23 03:58:00,
2013-01-22 23:03:00,13.0,-2.4,30.18,West,270,15.0,22.5,49,0.00,,---,0.00,VWS V14.01,2013-01-23 04:03:00,
2013-01-22 23:08:00,13.4,-1.6,30.18,NW,312,10.4,10.4,50,0.00,,---,0.00,VWS V14.01,2013-01-23 04:08:00,
2013-01-22 23:13:00,12.8,-2.5,30.18,NNW,343,11.7,16.2,50,0.00,,---,0.00,VWS V14.01,2013-01-23 04:13:00,
2013-01-22 23:18:00,12.9,-2.9,30.18,NW,325,8.1,15.7,48,0.00,,---,0.00,VWS V14.01,2013-01-23 04:18:00,
2013-01-22 23:22:00,13.4,-2.2,30.18,WNW,283,13.5,13.5,49,0.00,,---,0.00,VWS V14.01,2013-01-23 04:22:00,
2013-01-22 23:27:00,13.0,-2.3,30.18,NNW,329,9.0,10.3,50,0.00,,---,0.00,VWS V14.01,2013-01-23 04:27:00,
2013-01-22 23:32:00,12.9,-2.1,30.17,WNW,292,14.5,18.0,50,0.00,,---,0.00,VWS V14.01,2013-01-23 04:32:00,
2013-01-22 23:37:00,12.2,-2.8,30.18,NW,307,19.0,20.0,50,40.09,,---,0.00,VWS V14.01,2013-01-23 04:37:00,
2013-01-22 23:42:00,12.8,-1.9,30.17,NW,315,8.6,9.5,51,0.00,,---,0.00,VWS V14.01,2013-01-23 04:42:00,
2013-01-22 23:47:00,12.6,-1.8,30.17,NW,311,7.5,8.9,52,0.00,,---,0.00,VWS V14.01,2013-01-23 04:47:00,
2013-01-22 23:52:00,11.8,-2.0,30.17,WNW,297,13.1,13.1,53,0.00,,---,0.00,VWS V14.01,2013-01-23 04:52:00,
2013-01-22 23:57:00,12.7,-0.9,30.17,NW,315,3.8,4.2,54,0.00,,---,10.24,VWS V14.01,2013-01-23 04:57:00,